Arctic Village, AK

1:11 AM AKDT on May 30, 2017 (GMT -0800)
Arctic Village

Weather History for PARC - March, 2014

Change the Weather History Date:

Monday, March 31, 2014

  Actual Average Record
Temperature  
Mean Temperature 5 °F -  
Max Temperature 21 °F 22 °F 37 °F (1990)
Min Temperature -11 °F -13 °F -42 °F (1972)
Degree Days  
Heating Degree Days 60    
Moisture  
Dew Point -6 °F    
Average Humidity 56    
Maximum Humidity 100    
Minimum Humidity 27    
Precipitation  
Precipitation 0.00 in - - ()
Sea Level Pressure  
Sea Level Pressure 30.11 in    
Wind  
Wind Speed 3 mph (NE)    
Max Wind Speed 8 mph    
Max Gust Speed -    
Visibility 10 miles    
Events      
Averages and records for this station are not official NWS values.
T = Trace of Precipitation, MM = Missing Value Source: NWS Daily Summary

Daily Weather History Graph

Daily Weather History Graph

Search for Another Location

Airport or City:

Trip Planner

Search our weather history database for the weather conditions in past years. The results will help you decide how hot, cold, wet, or windy it might be!

Date:

Astronomy

Mar. 31, 2014 Rise Set
Actual Time 6:54 AM AKDT 8:40 PM AKDT
Civil Twilight 5:55 AM AKDT 9:40 PM AKDT
Nautical Twilight 4:34 AM AKDT 11:03 PM AKDT
Astronomical Twilight 2:18 AM AKDT 1:13 AM AKDT
Moon 6:53 AM AKDT (3/31) 11:01 PM AKDT (3/31)
Length of Visible Light 15h 45m
Length of Day
13h 46m
New Moon, 1% of the Moon is Illuminated
Mar 31
New Moon
Apr 7
First Quarter
Apr 14
Full
Apr 21
Last Quarter
Apr 28
New

Hourly Weather History & Observations

Time (AKDT) Temp. Windchill Dew Point Humidity Pressure Visibility Wind Dir Wind Speed Gust Speed Precip Events Conditions
12:16 AM 5.0 °F -4.1 °F -0.4 °F 78% 30.01 in 10.0 mi ENE 4.6 mph - N/A   Clear
12:36 AM 3.2 °F -7.8 °F -5.8 °F 66% 30.02 in 10.0 mi ENE 5.8 mph - N/A   Clear
12:56 AM 3.2 °F -4.2 °F -5.8 °F 66% 30.02 in 10.0 mi ENE 3.5 mph - N/A   Clear
1:16 AM 1.4 °F - -5.8 °F 72% 30.03 in 10.0 mi Calm Calm - N/A   Clear
1:36 AM 1.4 °F -6.2 °F -7.6 °F 66% 30.04 in 10.0 mi NE 3.5 mph - N/A   Clear
1:56 AM -0.4 °F -10.4 °F -5.8 °F 78% 30.04 in 10.0 mi ENE 4.6 mph - N/A   Clear
2:16 AM -0.4 °F -13.4 °F -2.2 °F 92% 30.04 in 10.0 mi NNE 6.9 mph - N/A   Clear
2:36 AM -2.2 °F -15.6 °F -9.4 °F 71% 30.05 in 10.0 mi NE 6.9 mph - N/A   Clear
2:56 AM -0.4 °F -8.3 °F -25.6 °F 30% 30.05 in 10.0 mi ENE 3.5 mph - N/A   Clear
3:16 AM -2.2 °F -14.2 °F -22.0 °F 39% 30.06 in 10.0 mi ENE 5.8 mph - N/A   Clear
3:36 AM -2.2 °F - -9.4 °F 71% 30.06 in 10.0 mi Calm Calm - N/A   Clear
3:56 AM -2.2 °F - - N/A% 30.07 in 10.0 mi Calm Calm - N/A   Clear
4:16 AM -5.8 °F - -29.2 °F 32% 30.07 in 10.0 mi Calm Calm - N/A   Clear
4:36 AM -5.8 °F - - N/A% 30.08 in 10.0 mi Calm Calm - N/A   Clear
4:56 AM -4.0 °F - -29.2 °F 29% 30.08 in 10.0 mi Calm Calm - N/A   Clear
5:16 AM -4.0 °F -12.4 °F - N/A% 30.08 in 10.0 mi NNE 3.5 mph - N/A   Clear
5:36 AM -4.0 °F -12.4 °F -25.6 °F 35% 30.08 in 10.0 mi NNE 3.5 mph - N/A   Clear
5:56 AM -4.0 °F - -11.2 °F 71% 30.08 in 10.0 mi Calm Calm - N/A   Clear
6:16 AM -7.6 °F -16.5 °F - N/A% 30.08 in 10.0 mi NNE 3.5 mph - N/A   Clear
6:36 AM -7.6 °F - -7.6 °F 100% 30.09 in 10.0 mi Calm Calm - N/A   Clear
6:56 AM -5.8 °F - -25.6 °F 38% 30.10 in 10.0 mi Calm Calm - N/A   Clear
7:16 AM -5.8 °F - -23.8 °F 42% 30.10 in 10.0 mi Calm Calm - N/A   Clear
7:36 AM -11.2 °F -20.6 °F - N/A% 30.10 in 10.0 mi ENE 3.5 mph - N/A   Clear
7:56 AM -7.6 °F - - N/A% 30.11 in 10.0 mi Calm Calm - N/A   Clear
8:16 AM -5.8 °F -14.5 °F - N/A% 30.11 in 10.0 mi ENE 3.5 mph - N/A   Clear
8:36 AM -5.8 °F -14.5 °F - N/A% 30.12 in 10.0 mi NNE 3.5 mph - N/A   Clear
8:56 AM -5.8 °F - -29.2 °F 32% 30.12 in 10.0 mi Calm Calm - N/A   Clear
9:16 AM -7.6 °F - - N/A% 30.12 in 10.0 mi Calm Calm - N/A   Clear
9:36 AM -5.8 °F - - N/A% 30.12 in 10.0 mi Calm Calm - N/A   Clear
9:56 AM -0.4 °F -8.3 °F - N/A% 30.13 in 10.0 mi NE 3.5 mph - N/A   Clear
10:16 AM -0.4 °F -8.3 °F -27.4 °F 27% 30.13 in 10.0 mi NE 3.5 mph - N/A   Clear
10:36 AM 1.4 °F - -2.2 °F 85% 30.12 in 10.0 mi Calm Calm - N/A   Clear
10:56 AM 3.2 °F - -9.4 °F 56% 30.13 in 10.0 mi Calm Calm - N/A   Clear
11:16 AM 3.2 °F - -2.2 °F 78% 30.13 in 10.0 mi Calm Calm - N/A   Clear
11:36 AM 6.8 °F - -0.4 °F 72% 30.13 in 10.0 mi Calm Calm - N/A   Clear
11:56 AM 6.8 °F - -18.4 °F 31% 30.14 in 10.0 mi Calm Calm - N/A   Clear
12:16 PM 8.6 °F - 8.6 °F 100% 30.14 in 10.0 mi Calm Calm - N/A   Clear
12:36 PM 10.4 °F - -11.2 °F 37% 30.14 in 10.0 mi Calm Calm - N/A   Clear
12:56 PM 12.2 °F - -11.2 °F 34% 30.14 in 10.0 mi Calm Calm - N/A   Clear
1:16 PM 12.2 °F - 8.6 °F 85% 30.14 in 10.0 mi Calm Calm - N/A   Clear
1:36 PM 14.0 °F - -2.2 °F 49% 30.14 in 10.0 mi Calm Calm - N/A   Clear
1:56 PM 15.8 °F 10.2 °F -7.6 °F 35% 30.14 in 10.0 mi East 3.5 mph - N/A   Clear
2:16 PM 15.8 °F - 1.4 °F 53% 30.14 in 10.0 mi Calm Calm - N/A   Clear
2:36 PM 17.6 °F - 1.4 °F 49% 30.14 in 10.0 mi Calm Calm - N/A   Clear
2:56 PM 19.4 °F - -0.4 °F 42% 30.14 in 10.0 mi Calm Calm - N/A   Clear
3:16 PM 19.4 °F 12.8 °F 1.4 °F 46% 30.14 in 10.0 mi NE 4.6 mph - N/A   Clear
3:36 PM 19.4 °F 11.5 °F 1.4 °F 46% 30.14 in 10.0 mi East 5.8 mph - N/A   Clear
3:56 PM 19.4 °F 12.8 °F -0.4 °F 42% 30.14 in 10.0 mi East 4.6 mph - N/A   Clear
4:16 PM 19.4 °F 10.4 °F 1.4 °F 46% 30.14 in 10.0 mi East 6.9 mph - N/A   Clear
4:36 PM 19.4 °F 12.8 °F -0.4 °F 42% 30.14 in 10.0 mi East 4.6 mph - N/A   Clear
4:56 PM 19.4 °F 12.8 °F 1.4 °F 46% 30.14 in 10.0 mi East 4.6 mph - N/A   Clear
5:16 PM 19.4 °F 11.5 °F 1.4 °F 46% 30.14 in 10.0 mi ENE 5.8 mph - N/A   Clear
5:36 PM 21.2 °F 13.6 °F 1.4 °F 42% 30.14 in 10.0 mi East 5.8 mph - N/A   Clear
5:56 PM 21.2 °F 13.6 °F 1.4 °F 42% 30.14 in 10.0 mi ENE 5.8 mph - N/A   Clear
6:16 PM 21.2 °F 14.9 °F 1.4 °F 42% 30.14 in 10.0 mi NE 4.6 mph - N/A   Clear
6:36 PM 19.4 °F 12.8 °F 1.4 °F 46% 30.14 in 10.0 mi NE 4.6 mph - N/A   Clear
6:56 PM 19.4 °F 12.8 °F 1.4 °F 46% 30.14 in 10.0 mi NE 4.6 mph - N/A   Clear
7:16 PM 19.4 °F 14.3 °F 1.4 °F 46% 30.14 in 10.0 mi NE 3.5 mph - N/A   Clear
7:36 PM 17.6 °F 12.3 °F 1.4 °F 49% 30.14 in 10.0 mi NNE 3.5 mph - N/A   Clear
7:56 PM 15.8 °F 8.6 °F -0.4 °F 49% 30.14 in 10.0 mi NNW 4.6 mph - N/A   Clear
8:16 PM 12.2 °F 6.1 °F -0.4 °F 57% 30.14 in 10.0 mi NNW 3.5 mph - N/A   Clear
8:36 PM 12.2 °F - -0.4 °F 57% 30.14 in 9.0 mi Calm Calm - N/A   Clear
8:56 PM 10.4 °F - -4.0 °F 52% 30.14 in 10.0 mi Calm Calm - N/A   Clear
9:16 PM 10.4 °F - 1.4 °F 67% 30.14 in 10.0 mi Calm Calm - N/A   Clear
9:36 PM 8.6 °F 0.1 °F -0.4 °F 67% 30.14 in 10.0 mi ENE 4.6 mph - N/A   Clear
9:56 PM 6.8 °F -5.9 °F -5.8 °F 56% 30.15 in 10.0 mi NE 8.1 mph - N/A   Clear
10:16 PM 6.8 °F -4.8 °F -0.4 °F 72% 30.15 in 10.0 mi NE 6.9 mph - N/A   Clear
10:36 PM 3.2 °F -9.1 °F -7.6 °F 61% 30.15 in 10.0 mi ENE 6.9 mph - N/A   Clear
10:56 PM 3.2 °F - -0.4 °F 85% 30.15 in 10.0 mi Calm Calm - N/A   Clear
11:16 PM 3.2 °F - -4.0 °F 72% 30.15 in 10.0 mi Calm Calm - N/A   Clear
11:36 PM 1.4 °F - -11.2 °F 56% 30.16 in 10.0 mi Calm Calm - N/A   Clear
11:56 PM -0.4 °F - -2.2 °F 92% 30.16 in 10.0 mi Calm Calm - N/A   Clear